Pittsfield, MA

10:53 PM EST on December 09, 2016 (GMT -0500)
Pittsfield Municipal

Weather History for KPSF - October, 2012

Change the Weather History Date:

Thursday, October 11, 2012

  Actual Average Record
Temperature  
Mean Temperature 44 °F 49 °F  
Max Temperature 52 °F 59 °F 82 °F (1949)
Min Temperature 35 °F 39 °F 22 °F (1943)
Degree Days  
Heating Degree Days 21 16  
Month to date heating degree days 137 158  
Since 1 July heating degree days 363 450  
Cooling Degree Days 0 0  
Month to date cooling degree days 0 0  
Year to date cooling degree days 465 289  
Moisture  
Dew Point 34 °F    
Average Humidity 68    
Maximum Humidity 92    
Minimum Humidity 44    
Precipitation  
Precipitation T in 0.18 in 1.28 in (1951)
Month to date precipitation 0.70 1.89  
Year to date precipitation 28.12 35.63  
Sea Level Pressure  
Sea Level Pressure 30.05 in    
Wind  
Wind Speed 9 mph (West)    
Max Wind Speed 17 mph    
Max Gust Speed 23 mph    
Visibility 10 miles    
Events Rain    
T = Trace of Precipitation, MM = Missing Value Source: NWS Daily Summary

Daily Weather History Graph

Daily Weather History Graph

Search for Another Location

Airport or City:

Trip Planner

Search our weather history database for the weather conditions in past years. The results will help you decide how hot, cold, wet, or windy it might be!

Date:

Astronomy

Oct. 11, 2012 Rise Set
Actual Time 7:01 AM EDT 6:16 PM EDT
Civil Twilight 6:33 AM EDT 6:45 PM EDT
Nautical Twilight 6:01 AM EDT 7:17 PM EDT
Astronomical Twilight 5:28 AM EDT 7:50 PM EDT
Moon 2:32 AM EDT (10/11) 3:55 PM EDT (10/11)
Length of Visible Light 12h 11m
Length of Day
11h 14m
Waning Crescent, 18% of the Moon is Illuminated
Oct 11
Waning Crescent
Oct 15
New
Oct 21
First Quarter
Oct 29
Full
Nov 6
Last Quarter

Hourly Weather History & Observations

Time (EDT) Temp. Windchill Dew Point Humidity Pressure Visibility Wind Dir Wind Speed Gust Speed Precip Events Conditions
12:54 AM 43.0 °F 36.0 °F 37.0 °F 80% 29.86 in 10.0 mi West 13.8 mph - N/A   Clear
1:54 AM 43.0 °F 35.7 °F 35.1 °F 74% 29.88 in 10.0 mi West 15.0 mph - N/A   Clear
2:54 AM 43.0 °F 36.8 °F 35.1 °F 74% 29.88 in 10.0 mi West 11.5 mph 18.4 mph N/A   Mostly Cloudy
3:54 AM 42.1 °F 34.5 °F 33.1 °F 70% 29.91 in 10.0 mi West 15.0 mph 24.2 mph N/A   Clear
4:54 AM 39.9 °F 33.9 °F 33.1 °F 77% 29.94 in 10.0 mi West 9.2 mph - N/A   Clear
5:54 AM 39.9 °F 33.4 °F 32.0 °F 73% 29.96 in 10.0 mi West 10.4 mph 21.9 mph N/A   Partly Cloudy
6:54 AM 41.0 °F 34.7 °F 32.0 °F 70% 30.00 in 10.0 mi WSW 10.4 mph - N/A   Overcast
7:54 AM 41.0 °F 34.7 °F 33.1 °F 73% 30.04 in 10.0 mi WSW 10.4 mph - N/A   Overcast
8:06 AM 41.0 °F 34.3 °F 33.8 °F 76% 30.07 in 10.0 mi WSW 11.5 mph - N/A   Overcast
8:54 AM 42.1 °F 35.2 °F 34.0 °F 73% 30.08 in 10.0 mi West 12.7 mph - 0.00 in   Overcast
9:31 AM 42.8 °F 35.1 °F 35.6 °F 76% 30.10 in 10.0 mi West 16.1 mph 21.9 mph 0.00 in Rain Light Rain
9:38 AM 42.8 °F 36.6 °F 35.6 °F 76% 30.10 in 9.0 mi West 11.5 mph 21.9 mph 0.00 in Rain Light Rain
9:54 AM 42.1 °F 34.9 °F 36.0 °F 79% 30.10 in 9.0 mi West 13.8 mph 23.0 mph 0.00 in Rain Light Rain
10:54 AM 46.0 °F 39.3 °F 36.0 °F 68% 30.10 in 10.0 mi West 16.1 mph 26.5 mph 0.00 in   Mostly Cloudy
11:13 AM 46.4 °F 40.1 °F 35.6 °F 66% 30.11 in 10.0 mi WNW 15.0 mph 32.2 mph N/A   Mostly Cloudy
11:29 AM 44.6 °F 36.9 °F 33.8 °F 66% 30.12 in 10.0 mi West 18.4 mph 25.3 mph N/A   Mostly Cloudy
11:36 AM 44.6 °F 37.8 °F 33.8 °F 66% 30.11 in 10.0 mi WNW 15.0 mph 23.0 mph N/A   Mostly Cloudy
11:54 AM 46.0 °F 39.6 °F 33.1 °F 61% 30.11 in 10.0 mi WNW 15.0 mph 24.2 mph N/A   Mostly Cloudy
12:54 PM 46.9 °F - 32.0 °F 56% 30.10 in 10.0 mi West 17.3 mph 27.6 mph N/A   Scattered Clouds
1:54 PM 50.0 °F - 33.1 °F 52% 30.09 in 10.0 mi WNW 12.7 mph 21.9 mph N/A   Mostly Cloudy
2:54 PM 51.1 °F - 33.1 °F 50% 30.08 in 10.0 mi Variable 5.8 mph - N/A   Partly Cloudy
3:54 PM 51.1 °F - 32.0 °F 48% 30.07 in 10.0 mi West 11.5 mph - N/A   Partly Cloudy
4:54 PM 51.1 °F - 30.9 °F 46% 30.08 in 10.0 mi West 6.9 mph - N/A   Clear
6:54 PM 45.0 °F 43.5 °F 33.1 °F 63% 30.08 in 10.0 mi WSW 3.5 mph - N/A   Clear
7:54 PM 39.9 °F - 34.0 °F 79% 30.09 in 10.0 mi Calm Calm - N/A   Clear
9:54 PM 36.0 °F 33.3 °F 34.0 °F 93% 30.09 in 10.0 mi ENE 3.5 mph - N/A   Clear
10:54 PM 37.9 °F - 34.0 °F 86% 30.07 in 10.0 mi Calm Calm - N/A   Clear
11:54 PM 45.0 °F 40.6 °F 33.1 °F 63% 30.05 in 10.0 mi SW 8.1 mph - N/A   Clear